Welcome to the New NWS' Forecast!
Most changes are behind the scenes, but click here for differences you might notice.

Regional Weather Roundup (RWR)

Issued by Memphis, TN (MEG)

                            
318 
ASUS44 KMEG 201300
RWRMEG
MEMPHIS CWA HOURLY WEATHER ROUNDUP
NATIONAL WEATHER SERVICE MEMPHIS TN
800 AM CDT MON AUG 20 2018

...WEST TENNESSEE...
  
CITY           SKY/WX    TMP DP  RH WIND       PRES   REMARKS
MEMPHIS INTL   PTSUNNY   72  71  97 SW9       29.93R                  
NWS MEMPHIS      N/A     72 N/A N/A MISG        N/A                   
JACKSON        FAIR      76  74  93 S6        29.93R                  
DYERSBURG      FAIR      75  72  90 VRB5      29.92R                  


...EASTERN ARKANSAS...
  
CITY           SKY/WX    TMP DP  RH WIND       PRES   REMARKS
JONESBORO      FAIR      73  73 100 SW9       29.89R                  
WEST MEMPHIS   FAIR      73  73 100 S9        29.91R                  
BATESVILLE     PTSUNNY   72  70  93 S5        29.89S                  
NEWPORT        CLOUDY    72  71  97 S13       29.90R                  
WALNUT RIDGE     N/A     73  71  93 SW14      29.88R                  
BLYTHEVILLE    FAIR      74  70  87 SW12      29.91R                  
SEARCY         PTSUNNY   71  71 100 S8        29.90S                  
STUTTGART      FAIR      73  71  93 S12       29.91S                  
PINE BLUFF     FAIR      74  72  93 S7        29.91S                  
MONTICELLO     CLOUDY    74  73  97 CALM      29.93R                  


...NORTH MISSISSIPPI...
  
CITY           SKY/WX    TMP DP  RH WIND       PRES   REMARKS
TUPELO         CLOUDY    74  72  93 S8        29.99R                  
OXFORD         DRIZZLE   73  72  94 S6G13     29.99R                  
TUNICA         LGT RAIN  70  68  94 S9        29.95S                  
CLARKSDALE     FOG       72  72 100 S9        29.95F VSB 1            
GREENWOOD      LGT RAIN  73  72  96 E3        30.00R FOG              
STARKVILLE     CLOUDY    73  72  94 CALM      30.01R                  
GOLDEN TRIANGL CLOUDY    76  73  91 S8        30.01R                  


...SOUTHEAST MISSOURI...
  
CITY           SKY/WX    TMP DP  RH WIND       PRES   REMARKS
KENNETT        FAIR      73  73 100 S10       29.87S                  
MALDEN         FAIR      73  70  88 SW9       29.89R                  
WEST PLAINS    CLOUDY    72  69  90 SW7       29.89S                  
POPLAR BLUFF   CLOUDY    73  72  96 SW13      29.87S                  
CAPE GIRARDEAU CLOUDY    73  69  87 SW9       29.87R                  


...NORTHWEST ALABAMA...
  
CITY           SKY/WX    TMP DP  RH WIND       PRES   REMARKS
MUSCLE SHOALS  CLOUDY    74  73  97 S7        30.01R FOG              


...MIDDLE TENNESSEE...
  
CITY           SKY/WX    TMP DP  RH WIND       PRES   REMARKS
NASHVILLE      LGT RAIN  76  72  87 S10       29.97S                  
CLARKSVILLE    PTSUNNY   75  71  87 S7        29.93R                  


...WESTERN KENTUCKY...
  
CITY           SKY/WX    TMP DP  RH WIND       PRES   REMARKS
PADUCAH        PTSUNNY   75  69  81 SW6       29.88R                  
FORT CAMPBELL  CLOUDY    76  74  93 S8        29.92R                  


...CENTRAL ARKANSAS...
  
CITY           SKY/WX    TMP DP  RH WIND       PRES   REMARKS
LITTLE ROCK    CLOUDY    72  72 100 SE3       29.90R                  


SKY/WX REPORTED AS FAIR MEANS FEW OR NO CLOUDS BELOW
12 THOUSAND FEET.